Location: Bli��� Lhota
(48.7570°N, 14.0120°E)
Time: 09:02:10
(UTC+00:00)

ERS-1 Rocket - Pass Details

Date: 18 September 2020
Orbit: 753 x 757 km, 98.5° (Epoch: 27 October)

Event Time Altitude Azimuth Distance (km) Brightness Sun altitude
Exits shadow 19:17:23 22° 57° (ENE) 1,634 4.4 -21.0°
Drops below altitude 10° 19:21:02 10° 11° (N) 2,296 5.7 -21.5°
Sets 19:23:47 0° 356° (N) 3,226 6.7 -21.9°
